This is the latest recevied weather packets stored in our database for station/object OE5RBO. If no packets are shown the sender has not sent any weather packets the latest 10 day(s).
| Time | Temp. | Humidity | Pressure | Rain* | Wind** | Luminosity | Snow |
|---|---|---|---|---|---|---|---|
| 1778219469 | 12.78° C | 97% | 1015.9 hPa | 0 mm | - | - | - |
| 1778218869 | 11.11° C | 99% | 1016.1 hPa | 0 mm | - | - | - |
| 1778218268 | 10.56° C | 100% | 1015.9 hPa | 0 mm | - | - | - |
| 1778217668 | 9.44° C | 100% | 1015.8 hPa | 0 mm | - | - | - |
| 1778217068 | 7.78° C | 100% | 1015.9 hPa | 0 mm | - | - | - |
| 1778215867 | 6.11° C | 100% | 1015.7 hPa | 0 mm | - | - | - |
| 1778215267 | 6.11° C | 100% | 1015.7 hPa | 0 mm | - | - | - |
| 1778213465 | 6.11° C | 100% | 1015.5 hPa | 0 mm | - | - | - |
| 1778212865 | 6.67° C | 100% | 1015.4 hPa | 0 mm | - | - | - |
| 1778212265 | 6.11° C | 100% | 1015.4 hPa | 0 mm | - | - | - |
| 1778211664 | 6.11° C | 100% | 1015.4 hPa | 0 mm | - | - | - |
| 1778211064 | 6.11° C | 100% | 1015.3 hPa | 0 mm | - | - | - |
| 1778209863 | 6.67° C | 100% | 1015.2 hPa | 0 mm | - | - | - |
| 1778209263 | 6.67° C | 100% | 1015.1 hPa | 0 mm | - | - | - |
| 1778208663 | 6.67° C | 100% | 1015.1 hPa | 0 mm | - | - | - |
| 1778208062 | 7.22° C | 100% | 1015.2 hPa | 0 mm | - | - | - |
| 1778207462 | 7.22° C | 100% | 1015.2 hPa | 0 mm | - | - | - |
| 1778206861 | 7.78° C | 100% | 1015.1 hPa | 0 mm | - | - | - |
| 1778206261 | 7.78° C | 100% | 1015.1 hPa | 0 mm | - | - | - |
| 1778205661 | 7.78° C | 100% | 1015.2 hPa | 0 mm | - | - | - |
| 1778203859 | 8.33° C | 100% | 1015.5 hPa | 0 mm | - | - | - |
| 1778203259 | 8.33° C | 100% | 1015.5 hPa | 0 mm | - | - | - |
| 1778202659 | 8.33° C | 100% | 1015.6 hPa | 0 mm | - | - | - |
| 1778202058 | 8.33° C | 100% | 1015.6 hPa | 0 mm | - | - | - |
| 1778201458 | 8.89° C | 100% | 1015.7 hPa | 0 mm | - | - | - |
* Rain since midnight (hover to see other rain measurements)
** Current wind speed in m/s (hover to see current wind gust speed)